User: anonymous
Location: Blue Mountain Vista Observatory
(40.6992°N, 75.9422°W)
Time: 17:38:38
(UTC-04:00)
Language:

CZ-4C R/B - Orbit

View from above orbital plane
View from above orbital plane
View from above satellite
View from above satellite

Ground track
Ground track

The orbit data is extracted from the following two-line orbital elements,

1 36416U 10009D   14204.60495314 -.00000118  00000-0 -18762-4 0  7249
2 36416 063.4472 222.6534 0283566 000.4226 359.7001 13.69419418219267
Epoch (UTC): 23 July 2014 14:31:07
Eccentricity: 0.0283566
inclination: 63.4472°
perigee height: 792 km
apogee height: 1211 km
right ascension of ascending node: 222.6534°
argument of perigee: 0.4226°
revolutions per day: 13.69419418
mean anomaly at epoch: 359.7001°
orbit number at epoch: 21926

The dashed part of the orbit path shows where the satellite is in the earth's shadow,  

DLR